Theta_e
332 327 329 327 314 309 305 308 315 314 318 327 329 326 323 325 323 321 350 350 343 348 354 359 365 363 360 358 357 358 357 359 357 355 357 357 356 355 353 351 350 349 349 353 354 354 353 351 350
328 325 328 321 307 303 305 312 311 317 320 322 324 324 321 322 333 340 344 350 344 348 354 356 365 364 363 360 358 359 357 360 356 356 357 357 355 355 354 351 350 349 352 353 353 352 351 350 349
329 325 319 312 307 303 306 311 316 315 317 319 321 325 324 324 334 338 346 349 343 347 352 357 364 364 363 361 360 358 357 358 357 356 357 356 356 355 354 351 350 350 352 353 352 352 350 349 349
324 323 317 306 305 307 310 313 314 314 316 319 323 319 327 339 336 344 348 345 341 347 351 360 364 362 361 358 359 360 359 358 356 355 355 356 355 355 354 352 350 350 352 352 351 350 349 348 348
325 319 308 305 305 307 310 313 313 312 313 314 319 316 322 341 346 347 347 343 342 347 349 356 361 360 358 357 358 356 360 358 356 353 353 355 355 355 354 353 350 350 351 351 351 349 348 347 346
316 314 305 303 304 307 311 313 312 313 314 315 314 317 325 343 344 347 347 345 345 346 348 352 358 359 359 359 359 356 356 357 355 353 352 355 354 355 354 353 351 349 351 350 349 350 348 347 346
312 310 305 305 305 306 309 314 311 312 312 313 319 315 324 331 344 349 348 347 346 347 347 350 352 355 359 359 358 356 355 355 354 352 353 353 353 354 354 353 352 350 349 350 348 347 348 347 345
317 311 305 306 304 305 311 312 313 313 312 317 317 313 316 327 336 347 349 348 347 347 347 347 349 348 349 351 356 356 355 354 353 353 353 353 353 353 352 353 352 351 349 348 347 347 349 346 345
317 306 304 305 304 307 311 310 315 317 313 314 316 315 320 326 334 339 344 346 347 347 347 347 345 346 347 348 351 355 355 354 354 352 352 351 348 351 351 351 352 350 350 348 345 346 348 347 345
312 306 305 309 309 307 310 310 312 311 311 312 314 318 319 320 324 327 335 337 344 346 347 347 345 345 347 346 350 350 348 348 347 346 345 343 342 348 349 350 351 350 349 348 346 344 347 347 342
311 305 310 308 310 310 310 310 313 310 308 311 311 314 316 317 318 320 324 329 338 346 348 347 345 346 347 347 348 351 348 347 346 346 346 344 341 346 347 349 347 347 349 347 345 342 340 339 340
306 310 310 311 312 311 309 311 309 310 311 314 314 315 315 315 315 316 317 321 326 339 346 348 346 346 347 350 348 350 348 353 349 350 350 345 348 346 344 347 346 349 348 347 345 348 340 337 337
308 309 310 311 311 310 310 308 308 309 313 314 314 314 314 315 316 317 318 319 323 328 344 348 348 347 348 349 350 351 348 348 348 351 350 350 346 345 344 345 346 347 348 345 347 347 341 337 333
310 309 308 310 309 310 307 308 308 310 312 311 313 313 314 314 315 316 316 317 318 323 335 346 347 349 350 349 351 351 351 347 345 347 348 348 346 344 342 342 344 345 348 351 348 339 339 335 334
309 304 308 309 309 307 307 303 305 311 311 310 312 313 314 314 315 315 316 316 317 319 324 339 346 350 351 351 351 354 351 349 344 344 344 343 345 343 341 341 344 349 349 346 342 341 342 341 337
305 306 301 306 306 307 305 300 308 310 310 309 310 312 313 314 315 317 319 320 321 319 318 320 326 341 348 350 352 351 351 350 346 343 343 343 344 345 345 344 343 345 342 339 344 344 341 337 333
305 299 301 304 307 305 304 301 307 311 309 309 310 311 312 313 315 318 321 323 325 325 322 319 321 321 331 349 352 351 351 350 348 344 342 343 344 344 346 342 341 345 344 342 342 340 335 332 332
299 300 301 301 305 305 303 302 307 309 309 309 310 310 311 312 313 317 319 322 325 327 327 326 321 322 328 345 350 352 350 348 348 346 343 343 344 344 343 343 343 343 340 339 339 334 335 332 331
303 300 299 302 306 303 302 302 305 308 308 308 309 309 310 311 314 317 319 322 324 325 326 327 327 321 329 338 342 345 344 346 347 347 345 344 344 343 342 339 338 339 338 336 336 334 332 331 332
301 299 299 302 304 302 301 301 304 306 307 308 308 308 307 309 312 315 317 319 320 322 324 326 327 328 323 335 340 346 348 345 346 348 345 345 342 343 340 337 337 336 338 335 334 333 330 330 331
300 298 298 298 301 303 301 299 301 305 307 307 306 305 305 306 307 309 312 316 318 320 323 324 326 329 327 323 341 346 347 343 343 342 343 343 342 342 339 338 337 337 338 334 334 334 331 327 329
295 301 300 298 296 291 300 290 298 302 303 303 302 302 302 303 305 307 308 311 315 317 321 324 325 326 329 322 331 341 341 337 340 343 343 343 341 341 341 339 338 337 338 335 335 334 332 331 324
297 301 298 298 295 294 294 291 295 301 299 299 299 299 300 301 302 302 304 307 311 315 317 322 326 325 327 325 327 341 339 342 344 342 342 342 343 342 342 339 338 337 336 336 334 332 330 330 327
300 297 296 296 294 287 292 292 292 296 298 297 298 298 298 298 299 301 302 304 307 311 315 320 324 323 325 330 331 339 338 337 337 335 337 340 341 341 341 339 338 336 335 333 332 331 331 331 328
296 292 286 284 285 285 294 291 294 295 296 296 295 296 297 297 297 298 299 300 303 306 310 315 322 324 324 324 329 337 339 340 338 336 337 337 336 336 336 338 336 334 335 333 332 331 330 329 326
292 292 286 279 281 286 293 287 293 294 295 296 296 295 295 295 296 297 298 299 300 302 307 312 317 323 325 323 324 333 338 338 338 337 335 335 336 337 337 337 335 333 332 331 330 330 329 328 326
291 288 293 286 287 284 287 292 293 294 293 294 293 293 294 294 295 296 297 298 299 300 303 308 313 320 325 323 323 327 332 332 334 329 323 320 320 327 335 335 332 332 331 329 330 329 327 326 327
288 292 284 286 277 277 284 286 285 289 292 290 290 291 293 295 295 296 297 298 299 300 302 307 312 317 323 325 322 324 328 330 330 326 323 321 321 323 331 332 331 330 329 329 329 326 327 326 327
288 285 286 285 284 279 278 283 291 288 287 288 290 292 294 295 297 298 298 299 299 300 300 305 310 314 319 323 321 323 325 326 326 325 323 322 323 326 327 329 329 329 328 328 325 326 325 324 323
288 285 285 280 280 282 281 282 292 288 289 290 291 293 296 297 298 299 300 300 300 300 299 302 307 312 316 322 323 322 324 324 324 324 325 326 325 326 327 328 327 327 326 325 324 323 323 322 321
Wind_Speed
10 7 4 4 6 6 4 5 3 6 6 5 2 4 5 3 7 5 4 7 8 13 16 16 13 15 15 13 11 10 9 9 10 9 7 10 9 8 9 7 7 6 6 7 9 11 11 11 11
6 6 4 4 7 6 5 5 4 5 8 4 3 5 7 8 6 7 7 8 8 13 15 15 14 14 14 14 11 11 9 11 10 10 9 9 9 9 9 9 8 7 6 7 10 10 10 10 11
8 4 5 4 5 6 5 3 6 2 3 4 3 3 5 6 7 5 8 10 12 12 13 13 14 11 12 11 11 10 9 10 9 9 7 7 8 8 8 8 8 7 7 7 9 9 9 10 10
4 5 5 6 9 3 6 3 4 6 2 2 4 5 5 10 5 10 8 9 13 13 12 18 15 13 11 10 9 11 10 12 10 9 7 8 7 8 8 7 7 7 7 7 7 8 9 9 10
4 4 6 7 5 3 2 3 4 5 3 4 3 2 2 10 6 6 8 10 11 12 11 13 13 11 10 10 9 8 10 11 9 7 7 6 8 8 8 8 7 6 6 6 7 8 8 8 8
4 3 7 6 2 0 2 2 4 4 3 1 7 4 6 8 2 4 6 8 9 11 11 14 12 10 10 9 12 10 8 9 8 5 5 4 7 8 8 8 7 6 6 6 4 5 7 7 7
5 5 8 6 7 6 0 3 4 6 5 1 6 8 6 10 3 2 4 5 5 7 8 11 12 11 9 9 11 10 9 8 7 7 6 5 5 6 8 8 9 7 6 6 4 3 6 6 6
5 4 7 4 5 4 2 4 4 6 5 6 4 3 1 9 4 1 4 5 6 7 9 8 11 12 12 11 9 9 9 9 8 8 7 6 5 6 6 9 9 8 7 7 5 4 5 6 5
2 5 7 4 5 4 2 5 4 4 9 2 5 8 7 5 3 2 5 7 6 7 10 10 11 11 11 10 11 8 8 8 8 8 8 7 8 10 10 10 10 8 8 8 7 6 5 6 5
6 5 6 6 3 5 4 6 9 9 9 7 11 9 4 6 8 8 8 8 9 10 10 10 11 11 11 9 10 10 9 9 9 10 10 9 11 7 6 6 10 10 8 7 8 6 6 9 5
3 7 6 4 5 5 9 9 9 9 11 8 9 12 14 14 12 12 12 11 12 11 9 11 10 10 10 9 8 6 6 7 8 10 9 8 7 8 8 5 6 8 9 7 8 8 7 9 3
8 6 8 7 4 8 12 13 13 13 13 10 8 11 12 14 13 13 14 11 13 13 12 11 12 12 12 7 7 4 5 3 6 6 6 7 2 3 3 5 7 5 5 7 5 4 5 5 5
11 8 6 8 9 12 12 15 15 16 14 7 6 7 8 8 10 10 13 13 13 12 14 12 12 12 11 12 9 9 10 9 10 7 7 6 4 3 2 6 7 5 6 7 7 5 0 2 7
7 10 14 14 14 13 14 15 8 7 2 7 8 9 10 5 8 9 8 10 13 13 12 14 16 14 13 13 12 9 8 8 8 8 10 13 7 5 5 5 5 6 7 4 3 4 5 7 4
9 14 14 17 9 4 3 13 15 13 7 10 10 12 9 3 7 10 9 11 13 11 11 15 13 13 14 14 13 8 9 9 8 8 11 9 9 8 6 4 6 5 3 5 5 8 6 4 4
14 13 12 8 4 5 5 15 7 5 10 10 13 14 12 8 8 10 11 11 10 12 13 13 10 13 17 16 13 10 11 8 8 9 7 11 10 11 5 4 5 3 1 4 4 4 5 8 4
13 11 12 12 2 7 11 14 7 8 13 17 14 10 7 6 5 8 10 11 12 11 12 14 13 14 17 17 13 14 14 10 9 9 8 10 9 10 6 6 5 6 4 7 5 6 5 3 2
16 18 19 18 12 12 17 22 19 18 16 15 13 4 3 5 7 8 10 11 12 13 12 12 12 16 16 12 12 9 9 7 8 8 8 8 8 8 8 7 8 7 4 3 4 5 2 2 3
17 19 22 19 16 19 19 22 17 15 15 14 10 4 2 5 6 8 10 11 13 13 15 14 13 14 12 9 10 12 11 10 8 8 11 9 9 10 10 7 7 8 8 5 5 5 5 3 5
17 19 21 19 14 7 16 19 19 21 16 2 2 2 5 7 8 10 12 13 13 15 16 16 15 13 12 10 10 10 11 11 9 7 10 12 12 11 10 8 7 7 8 6 6 5 3 3 4
15 17 19 20 18 19 21 25 21 9 9 9 6 3 6 9 10 12 13 14 14 16 16 16 17 16 13 15 10 7 8 8 11 10 9 11 13 12 11 10 9 8 8 7 6 5 6 4 4
20 16 18 16 16 17 17 19 16 8 14 10 7 5 6 7 8 11 13 15 15 16 15 16 15 16 14 13 14 14 11 11 9 11 10 10 14 13 12 12 10 9 5 6 6 5 5 5 5
19 13 14 17 20 21 24 17 16 19 11 16 7 6 7 9 11 13 14 14 14 16 17 17 15 14 20 10 14 9 12 9 8 9 13 13 11 13 12 12 11 10 7 8 8 5 7 3 4
15 18 20 21 18 18 22 22 20 20 8 13 9 7 8 11 13 14 14 14 14 14 15 16 17 12 15 19 11 11 12 11 9 10 12 10 9 8 10 9 9 8 7 5 4 5 4 3 3
14 14 13 15 15 18 21 17 12 14 12 11 7 6 8 11 13 15 16 16 16 16 16 16 17 14 12 13 17 10 10 10 12 12 11 13 9 8 11 11 9 7 6 6 6 5 5 4 3
16 17 13 21 18 17 20 8 1 12 12 9 6 7 10 12 13 15 16 16 16 16 15 16 18 15 13 11 11 12 10 6 7 8 11 6 6 10 12 10 10 10 9 7 5 4 4 5 4
13 17 12 18 20 18 16 16 7 9 8 7 6 9 11 13 14 15 16 15 16 15 15 14 17 16 11 10 8 10 2 2 5 8 13 6 6 12 13 10 8 9 9 9 6 4 6 5 5
12 12 9 8 7 15 13 20 4 6 4 5 10 12 13 14 15 16 15 16 16 16 13 12 14 17 14 10 6 4 2 4 4 5 6 9 15 9 3 8 9 9 8 5 6 5 5 5 5
8 10 12 11 10 6 6 1 8 5 5 11 12 13 14 14 14 14 15 16 16 17 14 11 11 15 12 14 10 6 2 3 6 6 8 10 13 12 4 6 9 9 7 8 7 5 6 6 6
8 11 8 4 5 6 5 7 7 3 12 13 14 15 15 15 14 15 15 14 16 17 14 12 10 10 9 9 5 5 4 5 6 7 9 12 13 11 8 6 9 9 7 7 7 8 6 7 6
Wind_Direction
270 264 301 261 251 240 226 166 25 158 171 99 126 304 19 5 8 21 125 172 170 168 155 165 164 161 164 164 169 171 172 169 151 154 149 147 139 134 117 104 90 88 72 68 75 76 73 64 60
306 295 249 284 258 245 127 97 195 65 31 332 281 242 222 89 61 91 143 161 169 169 154 171 165 169 169 165 174 166 174 169 155 157 162 155 152 147 138 129 122 117 88 86 86 82 74 66 60
264 280 273 270 272 295 16 185 105 344 302 264 270 291 355 56 63 89 87 158 171 169 160 156 159 158 159 165 168 176 176 166 164 162 155 159 160 160 151 140 135 132 113 107 104 94 83 74 67
302 208 224 260 280 48 335 101 3 295 162 213 313 257 145 44 19 41 117 149 165 165 168 130 147 160 163 173 183 198 180 178 170 170 173 177 171 168 168 152 144 141 124 105 101 98 86 79 71
229 243 257 241 274 302 250 4 300 282 308 274 340 328 82 71 58 100 130 156 166 167 164 143 149 165 173 178 173 174 186 171 167 183 184 196 178 180 174 163 154 153 140 125 124 114 101 88 79
255 262 253 262 56 306 259 321 290 270 294 288 261 313 76 97 71 108 142 165 172 167 172 147 156 176 191 198 182 168 163 158 164 191 199 232 183 181 183 173 167 172 155 136 119 121 112 98 83
280 280 285 297 281 271 280 338 292 337 282 71 313 274 95 80 69 142 163 165 174 169 178 158 175 182 196 182 179 182 184 184 187 196 205 224 220 205 189 182 178 178 168 148 144 132 132 118 102
288 265 266 246 302 278 62 306 342 327 358 336 298 301 16 47 15 224 195 175 181 179 183 185 178 183 195 194 191 190 199 199 200 206 213 217 238 211 211 188 197 181 177 172 166 170 170 136 120
280 262 275 290 289 22 349 312 141 344 281 285 305 297 8 23 315 260 228 210 193 194 191 193 193 188 199 200 177 192 197 200 207 209 209 213 227 186 185 203 165 191 192 182 180 181 167 152 132
257 265 314 22 355 297 310 289 312 295 282 270 271 254 253 289 282 259 218 248 211 207 206 207 199 196 190 198 169 201 199 214 214 210 200 216 220 161 174 180 164 192 194 192 187 190 188 211 186
180 261 25 283 304 286 288 284 292 280 276 284 304 313 304 297 284 271 264 251 225 213 209 211 202 206 200 210 193 182 202 198 210 222 214 203 242 156 179 174 187 197 192 198 189 185 212 218 197
276 244 299 302 316 294 294 307 285 280 282 295 309 291 299 294 287 282 281 267 272 201 200 207 212 201 206 212 192 188 205 222 248 179 240 237 299 281 130 177 226 177 181 204 198 236 237 213 232
239 283 300 268 260 265 271 267 272 276 278 294 266 266 278 311 324 299 281 281 295 270 183 201 210 219 211 212 199 213 194 193 223 170 212 241 236 250 180 195 220 177 200 212 195 207 17 253 235
342 281 283 274 271 270 269 277 274 265 209 252 264 265 267 348 322 309 284 269 260 270 254 191 204 210 211 225 204 204 246 207 206 174 204 207 218 242 254 199 210 217 214 218 176 123 191 222 224
275 284 283 266 279 298 294 257 231 255 195 265 279 282 288 332 314 302 354 331 317 297 290 215 192 208 211 221 234 194 215 224 204 212 205 228 196 229 239 214 210 231 236 207 177 188 212 316 233
259 271 269 123 166 161 228 280 291 161 237 267 293 288 292 340 316 359 337 325 323 305 287 283 273 227 211 216 220 211 218 204 219 210 208 201 210 221 239 245 240 208 304 248 175 164 190 219 200
230 267 275 273 89 260 238 289 299 280 269 278 283 289 331 308 323 346 337 332 325 320 307 295 280 258 245 221 216 212 220 196 203 217 201 199 201 214 203 211 222 199 179 172 181 174 196 172 142
312 303 295 291 286 218 248 270 284 281 273 274 269 269 282 326 4 3 351 345 339 329 317 307 294 281 261 216 209 228 234 216 203 203 202 186 198 199 195 199 191 161 115 135 180 153 145 160 140
297 289 286 287 291 280 279 282 275 278 263 263 260 259 312 358 1 14 7 358 355 347 336 328 312 291 279 231 223 205 208 204 220 197 194 183 193 188 208 196 174 176 133 173 171 133 157 162 124
279 279 279 285 286 283 278 280 290 283 281 30 74 319 10 8 6 14 8 5 7 360 348 327 317 299 280 262 229 214 202 200 196 198 179 185 187 176 195 180 172 174 135 155 178 167 160 137 227
264 272 282 287 299 285 281 274 271 116 132 130 122 66 29 21 4 10 4 2 358 360 357 340 325 310 278 273 243 227 221 219 192 183 186 179 175 179 182 177 172 179 157 158 190 171 182 175 245
277 284 287 286 284 281 295 285 276 210 189 158 143 89 47 21 14 18 9 2 355 356 354 349 337 327 294 251 259 208 215 215 194 187 183 170 177 175 177 180 171 165 148 180 176 193 206 207 184
282 307 284 282 282 286 272 272 265 257 199 157 129 76 50 26 17 11 6 2 0 351 346 342 347 354 341 263 256 212 220 219 197 189 183 168 169 169 178 181 174 148 166 199 178 196 212 208 169
292 291 272 271 267 260 269 267 268 261 355 117 119 74 31 16 0 358 358 357 354 355 341 335 344 356 349 340 263 225 209 225 230 199 191 173 158 160 168 181 166 161 177 167 153 195 196 185 181
239 277 280 271 259 262 261 273 298 82 76 93 84 49 22 8 359 347 349 349 347 349 354 335 338 354 357 345 336 277 242 249 234 205 189 166 166 163 172 170 159 156 162 161 157 184 174 152 138
304 288 273 281 285 291 301 270 9 105 105 103 76 20 6 357 351 341 341 337 336 337 345 340 333 339 358 352 334 307 256 250 247 199 193 170 150 162 159 156 161 161 159 154 166 163 137 135 167
294 284 281 289 279 280 271 258 113 136 118 70 27 359 353 344 337 332 332 329 327 326 333 341 328 330 346 4 337 307 28 110 139 126 119 110 74 315 148 148 150 149 148 165 167 142 140 163 160
242 315 271 244 265 254 245 252 51 164 99 13 357 350 348 339 330 324 319 320 317 315 319 335 333 318 337 1 341 310 207 140 168 175 179 160 128 335 80 148 137 133 151 163 138 150 147 149 139
240 248 243 274 261 284 292 111 108 100 18 353 341 346 346 342 332 325 317 313 309 308 311 322 334 324 349 343 331 356 11 119 148 118 104 121 133 142 257 156 138 143 153 156 146 147 119 137 113
271 287 289 282 260 251 287 267 125 52 5 346 344 347 346 338 329 324 322 309 303 303 305 312 331 330 346 317 310 31 33 157 136 133 123 140 139 137 158 163 156 152 146 143 144 112 135 126 117